ISS (ZARYA) 1 25544U 98067A 26119.49027628 .00007115 00000+0 13705-3 0 9999 2 25544 51.6319 181.1364 0007113 4.2135 355.8912 15.49020533564200 POISK 1 36086U 09060A 26119.49027628 .00007115 00000+0 13705-3 0 9997 2 36086 51.6319 181.1364 0007113 4.2135 355.8912 15.49020533563527 CSS (TIANHE) 1 48274U 21035A 26119.61220978 .00025434 00000+0 27305-3 0 9997 2 48274 41.4670 257.7391 0006692 297.1110 62.9047 15.63165714285571 ISS (NAUKA) 1 49044U 21066A 26119.49027628 .00007115 00000+0 13705-3 0 9995 2 49044 51.6319 181.1364 0007113 4.2135 355.8912 15.49020533563569 FREGAT DEB 1 49271U 11037PF 26119.43037095 .00008574 00000+0 13195-1 0 9998 2 49271 51.6406 148.3773 0938091 175.6076 185.3774 12.41136557218991 CSS (WENTIAN) 1 53239U 22085A 26119.61220978 .00025434 00000+0 27305-3 0 9990 2 53239 41.4670 257.7391 0006692 297.1110 62.9047 15.63165714285792 CSS (MENGTIAN) 1 54216U 22143A 26119.61220978 .00025434 00000+0 27305-3 0 9991 2 54216 41.4670 257.7391 0006692 297.1110 62.9047 15.63165714285237 TIANZHOU-9 1 64786U 25149A 26119.61220978 .00025434 00000+0 27305-3 0 9993 2 64786 41.4670 257.7391 0006692 297.1110 62.9047 15.63165714285241 HRC MONOBLOCK CAMERA 1 66052U 98067XR 26119.59193026 .00053362 00000+0 47755-3 0 9992 2 66052 51.6256 167.5456 0005001 352.0268 8.0648 15.67798513 30362 HTV-X1 1 66174U 25241A 26119.58229003 .00013447 00000+0 15007-3 0 9990 2 66174 51.6352 186.1646 0007207 5.8571 354.2507 15.63108504 28742 SZ-21 MODULE 1 66515U 25246C 26119.37107139 .00037528 00000+0 27400-3 0 9992 2 66515 41.4735 250.4357 0003611 348.4591 11.6169 15.72486354 26041 SHENZHOU-22 1 66645U 25272A 26119.61220978 .00025434 00000+0 27305-3 0 9996 2 66645 41.4670 257.7391 0006692 297.1110 62.9047 15.63165714285258 SOYUZ-MS 28 1 66664U 25275A 26119.49027628 .00007115 00000+0 13705-3 0 9998 2 66664 51.6319 181.1364 0007113 4.2135 355.8912 15.49020533563803 DUPLEX 1 66906U 98067XS 26119.58359108 .00017833 00000+0 22765-3 0 9991 2 66906 51.6273 174.2584 0005236 358.0268 2.0703 15.59340060 23068 ISS OBJECT XT 1 66907U 98067XT 26119.15531342 .00645359 19388-3 13206-2 0 9999 2 66907 51.6153 163.7537 0011559 12.7298 347.4001 15.98667726 23161 ISS OBJECT XU 1 66908U 98067XU 26119.39167167 .00701944 23436-3 13351-2 0 9999 2 66908 51.6142 162.3224 0011276 13.0680 347.0620 15.99960089 23200 ISS OBJECT XW 1 66910U 98067XW 26119.54279236 .00401636 72599-4 11962-2 0 9996 2 66910 51.6157 162.5968 0011240 10.7491 349.3753 15.91777639 23213 ISS OBJECT XY 1 66912U 98067XY 26119.40056800 .00122584 00000+0 79249-3 0 9991 2 66912 51.6235 168.4916 0008233 7.5329 352.5793 15.75153571 23116 KNACKSAT-2 1 67683U 98067XZ 26119.46795397 .00036666 00000+0 52181-3 0 9995 2 67683 51.6298 178.7389 0012587 17.1710 342.9705 15.55903330 12687 CORAL 1 67684U 98067YA 26119.53783769 .00094937 00000+0 99789-3 0 9994 2 67684 51.6266 176.1989 0016510 11.8387 348.2993 15.63378317 12725 GXIBA-1 1 67685U 98067YB 26119.44349163 .00038936 00000+0 53572-3 0 9998 2 67685 51.6304 178.5742 0014510 14.6310 345.5099 15.56755934 12685 UITMSAT-2 1 67686U 98067YC 26119.40173335 .00046633 00000+0 60143-3 0 9996 2 67686 51.6292 178.2996 0011542 356.7716 3.3200 15.58448677 12680 HMU-SAT2 1 67687U 98067YD 26119.39039401 .00037972 00000+0 53069-3 0 9995 2 67687 51.6301 178.9748 0010626 357.6460 2.4480 15.56403043 12598 LEOPARD 1 67688U 98067YE 26119.35657596 .00041576 00000+0 55306-3 0 9994 2 67688 51.6297 178.7499 0011273 356.7500 3.3417 15.57679602 12595 CREW DRAGON 12 1 67796U 26031A 26119.49027628 .00007115 00000+0 13705-3 0 9996 2 67796 51.6319 181.1364 0007113 4.2135 355.8912 15.49020533564373 PROGRESS-MS 33 1 68319U 26058A 26119.49027628 .00007115 00000+0 13705-3 0 9997 2 68319 51.6319 181.1364 0007113 4.2135 355.8912 15.49020533 5195 CYGNUS NG-24 1 68689U 26079A 26119.49027628 .00007115 00000+0 13705-3 0 9990 2 68689 51.6319 181.1364 0007113 4.2135 355.8912 15.49020533 2855 PROGRESS-MS 34 1 68837U 26093A 26119.49027628 .00007115 00000+0 13705-3 0 9991 2 68837 51.6319 181.1364 0007113 4.2135 355.8912 15.49020533 353